Theta_e
327 325 322 323 325 325 328 330 326 318 319 325 328 334 334 336 336 335 332 331 328 325 323 324 325 326 326 327 329 328 328 328 330 330 331 332 334 335
318 320 319 318 318 319 320 320 322 322 317 324 326 330 332 334 335 334 332 330 328 325 323 322 322 322 322 322 323 324 326 326 325 326 328 329 330 332
314 314 313 315 313 314 315 315 315 316 312 315 322 323 325 325 328 329 330 330 329 323 323 321 319 319 319 319 319 320 322 323 323 324 324 326 327 328
312 313 313 313 311 311 310 311 312 313 311 308 312 315 318 322 326 327 330 333 329 326 322 321 319 317 317 317 316 317 317 317 318 320 322 323 324 326
310 310 309 309 306 306 306 306 306 308 308 306 306 310 313 316 315 321 325 325 328 327 321 321 320 319 319 317 315 315 313 313 313 313 316 318 321 323
309 309 307 307 304 303 304 304 304 303 303 303 303 305 308 310 312 310 310 315 319 325 325 323 321 320 320 319 316 315 312 310 310 311 311 311 312 315
309 309 308 308 310 307 304 302 302 300 300 299 299 301 302 303 303 305 305 307 310 311 314 316 319 321 321 316 319 318 314 311 309 308 308 308 306 308
306 308 308 309 308 308 306 305 304 300 299 298 298 298 299 300 302 303 302 302 301 312 306 306 312 309 314 315 317 313 311 310 309 308 307 306 305 305
305 305 305 308 309 308 307 306 305 304 304 301 299 299 299 301 303 302 302 301 301 305 304 302 307 306 309 312 311 311 311 310 309 307 307 306 305 302
308 307 306 306 306 302 303 302 303 303 303 304 303 303 304 304 305 303 301 300 301 301 303 298 304 304 307 309 308 307 306 306 306 306 306 304 303 301
305 306 306 307 300 297 299 299 300 300 303 302 301 300 298 297 299 299 297 297 296 298 301 302 302 303 305 306 309 308 307 305 303 304 304 303 300 300
302 305 304 301 297 296 298 299 298 300 301 301 301 301 301 302 300 301 300 297 296 296 302 301 301 304 303 309 310 314 312 309 303 302 302 303 301 301
299 302 304 299 296 295 295 302 299 299 302 300 298 298 299 300 302 304 303 300 297 298 304 304 303 302 303 303 308 311 309 309 310 304 301 301 301 302
301 303 304 296 295 296 299 295 296 301 301 298 296 296 296 297 299 301 302 304 304 303 305 306 303 302 302 302 303 307 307 309 314 311 311 303 301 300
303 301 297 297 297 300 298 297 299 303 301 298 296 296 297 298 299 300 302 305 306 306 307 306 305 305 304 303 303 303 304 307 309 312 311 308 307 308
301 306 301 299 298 299 300 300 301 301 302 299 299 299 300 300 299 300 300 301 300 301 305 306 305 305 304 305 305 303 305 302 310 309 308 306 305 305
296 304 301 300 299 298 298 298 299 299 299 302 302 301 299 299 299 301 302 301 299 300 302 305 308 307 302 302 302 303 303 306 308 306 306 303 302 302
301 299 298 298 298 298 298 298 298 298 299 300 301 303 301 300 300 301 302 300 299 301 302 306 306 303 301 298 297 296 303 306 305 305 304 303 301 301
298 300 300 300 300 301 301 300 299 300 300 300 300 302 303 303 300 302 303 302 303 305 305 307 306 304 300 299 297 296 293 305 304 301 299 298 302 298
297 297 300 300 300 300 299 300 300 300 299 299 301 304 305 305 305 305 306 305 305 306 305 306 305 305 303 303 297 295 292 299 302 299 297 298 296 295
296 297 300 299 298 298 297 298 298 297 296 297 300 303 305 310 308 308 307 296 298 306 303 304 307 294 304 303 298 294 294 294 295 294 295 299 301 303
298 298 297 297 297 296 295 295 295 295 294 294 298 302 303 309 310 310 309 306 307 308 307 308 310 311 308 303 297 294 294 295 295 295 295 294 294 295
297 297 296 295 295 294 293 293 293 293 292 293 296 299 302 307 311 312 311 309 307 306 307 307 307 305 302 300 296 295 294 293 293 292 291 294 294 294
Wind_Speed
6 6 7 8 8 9 7 5 5 11 11 8 6 6 7 7 7 5 5 23 10 14 18 18 18 16 15 14 13 13 13 12 9 10 10 9 11 10
7 8 8 8 10 9 8 9 8 8 11 4 4 7 9 5 7 6 6 9 18 25 19 16 15 16 15 15 14 13 13 12 11 11 11 11 12 10
11 10 11 10 8 9 9 9 9 10 11 11 7 7 8 8 7 5 5 6 3 14 10 14 16 16 14 14 15 14 15 15 14 13 12 14 13 12
11 10 11 9 11 11 9 12 10 11 11 17 12 11 12 9 8 6 5 4 4 3 4 3 4 14 14 14 12 13 14 10 9 9 12 13 14 12
10 10 11 11 8 9 10 9 9 9 10 12 13 10 11 10 11 7 6 7 6 12 14 13 14 21 20 20 17 14 11 12 12 9 14 13 13 13
11 10 10 9 11 11 9 9 9 10 10 10 12 12 11 11 8 10 11 11 8 9 12 15 13 21 19 25 19 18 18 17 18 17 20 17 15 14
10 9 9 13 16 10 6 10 9 9 9 10 10 11 10 10 10 9 8 9 10 10 6 6 5 5 8 14 15 21 14 10 9 12 15 14 14 13
11 12 12 15 11 14 11 12 11 9 11 9 9 10 13 12 11 8 7 8 7 5 9 10 8 8 8 7 7 7 7 8 9 12 11 11 11 12
9 10 9 9 13 11 13 15 14 15 18 13 13 12 12 11 10 10 8 5 6 7 9 8 5 5 6 3 6 0 4 7 9 9 12 13 11 10
9 9 11 12 10 11 13 14 15 15 15 11 12 12 11 9 7 3 6 6 4 6 5 7 6 7 7 7 12 7 11 11 12 10 9 11 11 12
12 12 12 11 12 13 13 13 14 14 14 18 17 15 11 11 10 5 7 7 7 8 4 3 5 7 8 9 7 9 6 8 8 11 9 8 3 4
11 11 10 14 19 22 12 11 12 15 15 14 11 9 8 7 10 7 6 6 6 6 4 3 5 2 4 3 4 2 5 9 6 2 4 8 9 4
9 9 9 15 19 19 14 11 15 18 17 9 7 6 6 6 5 3 4 6 6 7 6 2 3 3 2 3 3 2 3 5 3 2 7 8 8 7
8 9 11 17 16 16 13 17 19 13 10 8 6 6 6 5 3 4 7 7 8 10 6 3 3 3 2 4 3 4 6 8 5 3 3 5 6 7
8 13 12 13 14 12 19 15 15 8 7 8 8 6 5 5 5 4 5 6 3 4 5 5 4 3 1 4 4 3 5 4 8 3 4 3 2 2
12 7 9 8 11 11 14 13 10 11 8 4 5 5 4 3 2 2 4 3 3 4 5 7 6 4 2 3 3 5 3 4 4 3 3 2 2 3
11 8 9 11 12 12 12 12 11 11 11 11 5 4 3 4 3 2 3 3 2 4 5 4 3 4 5 3 2 4 6 4 3 2 1 1 2 3
7 9 11 10 10 11 10 11 10 14 11 10 10 8 5 3 3 3 2 2 4 5 4 2 3 2 2 6 11 5 3 2 3 3 3 1 2 2
8 7 8 9 9 9 9 10 10 10 12 11 10 10 9 5 3 4 3 3 4 2 2 1 2 2 2 1 3 19 4 3 1 2 3 2 2 3
8 9 10 11 11 12 12 12 12 12 12 12 12 12 12 6 3 4 3 4 5 3 2 3 2 1 2 1 3 3 17 4 3 2 2 1 0 5
8 9 10 11 11 11 12 12 12 12 12 12 12 12 13 8 7 4 5 4 3 2 3 3 2 2 3 3 4 2 5 16 13 5 3 3 2 1
8 10 10 11 11 12 12 12 12 12 13 12 13 13 13 11 6 7 6 5 5 5 2 2 1 1 2 3 4 3 1 3 7 15 17 12 3 3
9 11 11 11 11 11 12 12 12 12 12 12 13 13 13 12 9 8 6 6 4 4 4 3 5 6 7 5 5 3 3 3 2 5 8 14 14 13
Wind_Direction
329 342 347 329 327 336 327 283 286 303 296 295 298 296 301 324 306 260 209 260 245 233 225 205 205 195 201 203 209 213 219 220 218 231 241 244 246 234
335 342 345 343 333 327 325 322 318 291 290 310 297 307 305 305 282 268 245 250 246 225 210 212 219 216 206 206 210 218 223 227 216 220 233 242 249 237
348 345 335 333 329 330 323 318 321 326 315 315 301 272 277 286 278 258 279 275 264 219 214 215 208 207 214 220 226 214 219 221 220 211 228 234 240 240
335 337 343 351 342 358 346 339 329 330 331 317 323 320 317 292 266 265 253 251 267 300 71 340 332 308 253 231 224 231 233 236 249 248 234 231 234 237
337 346 347 346 356 344 332 325 325 318 322 312 312 312 312 307 293 273 233 238 250 252 232 209 221 261 263 252 226 217 216 233 237 244 247 239 230 231
353 348 340 341 334 319 321 331 330 325 316 312 313 317 318 314 343 358 352 346 294 257 239 231 217 228 232 248 211 212 213 215 222 219 236 230 226 223
329 328 331 328 306 303 317 320 320 313 311 308 305 309 314 327 326 335 330 333 341 33 360 358 316 254 241 229 212 215 215 235 254 242 235 235 231 227
335 340 337 326 338 318 295 280 266 279 285 286 289 289 295 298 303 312 324 326 317 26 0 328 4 352 1 24 108 105 188 227 240 243 248 246 230 224
323 307 309 315 311 309 305 291 270 258 248 263 272 271 279 285 296 306 315 331 315 326 334 300 338 320 327 344 20 164 192 201 213 211 222 236 224 209
319 339 320 315 335 1 330 318 310 303 297 287 280 282 284 277 275 297 299 276 270 281 285 285 318 313 314 300 295 248 209 217 217 217 230 220 215 202
339 325 322 329 349 332 327 314 305 300 299 289 277 268 274 281 263 298 287 289 298 297 284 254 279 295 296 291 278 261 31 1 221 216 228 228 228 189
330 323 337 352 339 329 331 322 321 319 312 303 301 294 277 286 261 235 262 271 277 294 264 251 267 294 294 295 276 41 23 343 355 274 218 237 234 229
328 333 332 338 334 325 329 347 334 321 330 325 321 316 306 296 288 237 249 245 260 258 285 26 329 344 247 314 312 37 19 336 256 211 225 224 221 222
327 324 329 333 326 327 346 337 339 348 359 2 346 337 330 323 316 321 295 297 245 251 281 297 279 305 320 295 289 344 348 321 266 185 169 130 207 230
337 318 339 349 344 354 345 343 345 347 1 358 351 346 339 324 315 300 296 293 306 251 265 264 252 281 269 297 318 334 337 309 291 127 72 58 12 344
346 2 355 356 13 356 358 354 346 344 336 331 327 319 310 325 308 302 303 345 296 287 272 244 228 215 247 244 267 296 289 294 344 67 90 72 27 4
319 7 3 7 5 359 355 350 347 349 347 341 319 325 320 323 323 332 306 306 289 298 311 289 234 108 60 8 321 288 289 301 108 82 86 90 42 38
16 9 7 5 3 353 349 341 342 347 350 347 343 347 304 309 317 307 283 299 302 299 306 318 113 112 124 74 44 315 292 75 51 34 29 325 130 43
16 356 5 360 355 350 354 349 342 343 342 346 339 340 342 296 290 303 304 282 301 7 358 213 162 171 218 275 157 39 342 15 68 45 17 19 23 50
11 344 8 4 1 356 358 349 352 349 347 344 342 342 340 334 327 323 330 326 335 355 34 12 356 297 261 347 100 36 12 2 17 32 359 319 26 119
356 339 12 7 5 359 359 350 355 351 344 341 342 343 343 356 358 336 333 345 336 353 8 353 357 77 101 131 85 43 27 33 44 22 328 336 346 63
0 10 11 13 6 2 358 351 355 353 349 343 341 341 341 349 355 2 13 4 26 16 52 10 8 336 18 78 82 95 66 22 33 45 45 46 347 34
16 22 9 17 7 3 360 352 357 352 348 338 337 338 335 352 9 2 19 4 360 17 7 31 54 45 46 61 87 83 71 29 11 36 39 40 63 66